This is the latest recevied weather packets stored in our database for station/object N7ZAP. If no packets are shown the sender has not sent any weather packets the latest 10 day(s).
| Time | Temp. | Humidity | Pressure | Rain* | Wind** | Luminosity | Snow |
|---|---|---|---|---|---|---|---|
| 1777479102 | 20° C | 14% | 1019 hPa | 0 mm | - | - | - |
| 1777478799 | 20° C | 13% | 1019 hPa | 0 mm | - | - | - |
| 1777478496 | 20° C | 12% | 1019.1 hPa | 0 mm | - | - | - |
| 1777478193 | 19.44° C | 13% | 1019.2 hPa | 0 mm | - | - | - |
| 1777477889 | 18.89° C | 13% | 1019.4 hPa | 0 mm | - | - | - |
| 1777477584 | 18.33° C | 12% | 1019.2 hPa | 0 mm | - | - | - |
| 1777477281 | 18.33° C | 13% | 1019.5 hPa | 0 mm | - | - | - |
| 1777476977 | 18.33° C | 12% | 1019 hPa | 0 mm | - | - | - |
| 1777476676 | 18.33° C | 12% | 1019.5 hPa | 0 mm | - | - | - |
| 1777476372 | 17.78° C | 12% | 1019.1 hPa | 0 mm | - | - | - |
| 1777476069 | 17.78° C | 12% | 1019.2 hPa | 0 mm | - | - | - |
| 1777475763 | 17.78° C | 12% | 1019.6 hPa | 0 mm | - | - | - |
| 1777475461 | 17.78° C | 12% | 1019.4 hPa | 0 mm | - | - | - |
| 1777475155 | 17.78° C | 12% | 1019.5 hPa | 0 mm | - | - | - |
| 1777474852 | 16.67° C | 14% | 1019.5 hPa | 0 mm | - | - | - |
| 1777474548 | 15.56° C | 15% | 1019.5 hPa | 0 mm | - | - | - |
| 1777474245 | 15° C | 17% | 1019.2 hPa | 0 mm | - | - | - |
| 1777473942 | 15° C | 17% | 1019.1 hPa | 0 mm | - | - | - |
| 1777473640 | 15° C | 16% | 1019.4 hPa | 0 mm | - | - | - |
| 1777473336 | 15° C | 15% | 1019.2 hPa | 0 mm | - | - | - |
| 1777473032 | 15° C | 15% | 1018.8 hPa | 0 mm | - | - | - |
| 1777472728 | 15° C | 15% | 1019.1 hPa | 0 mm | - | - | - |
| 1777472425 | 14.44° C | 15% | 1019.1 hPa | 0 mm | - | - | - |
| 1777472123 | 13.33° C | 15% | 1019.2 hPa | 0 mm | - | - | - |
| 1777471822 | 12.78° C | 17% | 1019.5 hPa | 0 mm | - | - | - |
* Rain latest hour (hover to see other rain measurements)
** Current wind speed in m/s (hover to see current wind gust speed)